GW6010 Weather Reports


time (UTC)temp
F
wind
direction
speed
knots
gust
knots
rain 1hr
in
rain 24hr
in
rain mn
in
humidity
%
barometer
mb
20260502151521 47 43 5.2 9.6 0.00 0.00 0.00 49 1015.6
20260502123024 39 83 0.0 1.7 0.00 0.00 0.00 79 1015.3
20260502121529 38 236 0.0 2.6 0.00 0.00 0.00 81 1015.3
20260502114522 37 221 0.0 0.0 0.00 0.00 0.00 88 1015.4
20260502113024 36 139 0.0 0.0 0.00 0.00 0.00 90 1015.2
20260502111510 35 138 0.0 0.0 0.00 0.00 0.00 90 1015.1
20260502110014 35 231 0.0 0.0 0.00 0.00 0.00 89 1014.9
20260502104519 35 154 0.0 0.0 0.00 0.00 0.00 89 1015.1
20260502103025 35 170 0.0 0.0 0.00 0.00 0.00 88 1015.2
20260502101534 36 54 0.0 0.0 0.00 0.00 0.00 87 1014.9
20260502091525 37 171 0.9 1.7 0.00 0.00 0.00 84 1015.3
20260502071518 40 224 0.9 4.3 0.00 0.00 0.00 79 1015.3
20260502070022 40 283 0.9 4.3 0.00 0.00 0.00 79 1015.3
20260502064539 40 248 0.9 3.5 0.00 0.00 0.00 79 1015.1
20260502063033 40 277 0.9 3.5 0.00 0.00 0.00 78 1015.3
20260502061512 40 269 0.9 2.6 0.00 0.00 0.00 78 1015.3
20260502060006 42 319 0.9 4.3 0.00 0.00 0.00 76 1015.2
20260502054504 42 314 0.9 3.5 0.00 0.00 0.00 76 1015.5
20260502053008 43 266 1.7 5.2 0.00 0.00 0.00 76 1015.6
20260502051506 43 285 0.9 3.5 0.00 0.00 0.00 74 1015.7
20260502050014 43 265 0.9 4.3 0.00 0.00 0.00 75 1015.8
20260502044509 44 288 2.6 7.8 0.00 0.00 0.00 72 1015.9
20260502043004 44 230 0.9 7.0 0.00 0.00 0.00 72 1015.8
20260502041508 44 47 0.9 3.5 0.00 0.00 0.00 72 1015.6
20260502040007 44 114 2.6 12.2 0.00 0.00 0.00 73 1015.7
20260502034510 45 255 0.9 4.3 0.00 0.00 0.00 75 1015.7
20260502033007 45 268 0.9 6.1 0.00 0.00 0.00 76 1015.7
20260502031503 45 13 1.7 7.8 0.00 0.00 0.00 74 1015.7
20260502030008 45 265 2.6 6.1 0.00 0.00 0.00 73 1015.6
20260502024508 46 317 2.6 9.6 0.00 0.00 0.00 72 1015.5
20260502023010 46 259 3.5 7.0 0.00 0.00 0.00 71 1015.1
20260502021510 46 285 3.5 15.6 0.00 0.00 0.00 70 1015.4
20260502020008 47 111 0.9 5.2 0.00 0.00 0.00 69 1015.0
20260502014531 47 290 0.9 7.0 0.00 0.00 0.00 68 1014.7
20260502013012 47 246 2.6 7.8 0.00 0.00 0.00 68 1014.6
20260502011514 48 263 3.5 10.4 0.00 0.00 0.00 68 1014.4
20260502010015 49 265 2.6 7.0 0.00 0.00 0.00 69 1014.1
20260502004510 49 53 3.5 8.7 0.00 0.00 0.00 70 1013.8
20260502003013 50 313 2.6 8.7 0.00 0.00 0.00 72 1013.9
20260502001522 50 304 1.7 12.2 0.00 0.00 0.00 71 1013.2
20260502000015 51 127 1.7 7.0 0.00 0.00 0.00 68 1012.9
20260501234515 52 316 3.5 9.6 0.00 0.00 0.00 65 1012.5
20260501233011 52 289 1.7 11.3 0.00 0.00 0.00 63 1012.3
20260501231516 54 288 3.5 9.6 0.00 0.00 0.00 60 1012.1
20260501230017 55 303 6.1 14.8 0.00 0.00 0.00 57 1012.2
20260501224518 56 28 3.5 13.0 0.00 0.00 0.00 52 1011.8
20260501223018 58 359 3.5 11.3 0.00 0.00 0.00 48 1011.6
20260501221513 60 335 7.8 16.5 0.00 0.00 0.00 42 1011.4
20260501220017 60 293 7.0 15.6 0.00 0.00 0.00 36 1011.2
20260501214518 61 294 5.2 13.0 0.00 0.00 0.00 36 1010.9
20260501213016 63 245 9.6 19.1 0.00 0.00 0.00 33 1010.8
20260501211520 62 290 7.8 14.8 0.00 0.00 0.00 32 1011.0
20260501210021 62 300 3.5 12.2 0.00 0.00 0.00 32 1011.1
20260501204512 63 297 8.7 14.8 0.00 0.00 0.00 29 1011.1
20260501203015 63 266 5.2 11.3 0.00 0.00 0.00 29 1010.8
20260501201507 64 321 5.2 13.0 0.00 0.00 0.00 29 1010.8
20260501200011 65 207 7.0 13.0 0.00 0.00 0.00 29 1010.9
20260501194512 64 263 12.2 30.4 0.00 0.00 0.00 24 1011.0
20260501193011 64 254 7.8 20.0 0.00 0.00 0.00 26 1011.1
20260501191514 64 279 7.8 17.4 0.00 0.00 0.00 27 1011.4
20260501190006 63 261 7.0 12.2 0.00 0.00 0.00 28 1011.4
20260501184514 64 291 5.2 14.8 0.00 0.00 0.00 30 1011.4
20260501183012 62 306 6.1 16.5 0.00 0.00 0.00 28 1011.4
20260501181521 62 237 1.7 8.7 0.00 0.00 0.00 36 1011.6
20260501180013 61 259 6.1 8.7 0.00 0.00 0.00 37 1011.8
20260501174512 60 34 4.3 10.4 0.00 0.00 0.00 39 1012.0
20260501173019 60 237 2.6 9.6 0.00 0.00 0.00 45 1012.3
20260501171520 60 215 5.2 10.4 0.00 0.00 0.00 37 1012.6
20260501170021 59 269 4.3 9.6 0.00 0.00 0.00 38 1012.7
20260501164514 58 248 0.9 10.4 0.00 0.00 0.00 35 1013.0
20260501163018 58 293 4.3 9.6 0.00 0.00 0.00 31 1013.1
20260501161516 57 111 2.6 7.0 0.00 0.00 0.00 43 1013.2
20260501160019 55 125 2.6 8.7 0.00 0.00 0.00 46 1013.5